| time (UTC) | temp F | wind direction | speed knots | gust knots | rain 1hr in | rain 24hr in | rain mn in | humidity % | barometer mb |
| 20260507000613 | 46 | 105 | 2.6 | 2.6 | 0.00 | 0.39 | 0.00 | 83 | 8.1 |
| 20260506230614 | 47 | 100 | 2.6 | 2.6 | 0.00 | 0.39 | 0.00 | 83 | 8.1 |
| 20260506190653 | 50 | 135 | 1.7 | 2.6 | 0.00 | 0.44 | 0.39 | 83 | 5.7 |
| 20260506181214 | 51 | 135 | 5.2 | 5.2 | 0.00 | 0.44 | 0.39 | 82 | 3.6 |
| 20260506170613 | 51 | 55 | 0.9 | 3.5 | 0.00 | 0.44 | 0.39 | 82 | 4.6 |
| 20260506160654 | 52 | 65 | 4.3 | 4.3 | 0.00 | 0.44 | 0.39 | 84 | 4.5 |
| 20260506150611 | 54 | 50 | 6.1 | 6.1 | 0.00 | 0.44 | 0.39 | 81 | 3.3 |
| 20260506140610 | 54 | 95 | 5.2 | 5.2 | 0.09 | 0.46 | 0.39 | 83 | 3.3 |
| 20260506130657 | 54 | 275 | 2.6 | 6.1 | 0.29 | 0.39 | 0.30 | 83 | 2.2 |
| 20260506120611 | 56 | 265 | 4.3 | 4.3 | 0.01 | 0.14 | 0.01 | 79 | 2.1 |
| 20260506110612 | 57 | 25 | 5.2 | 7.8 | 0.00 | 0.16 | 0.00 | 76 | 2.0 |
| 20260506100658 | 55 | 305 | 9.6 | 9.6 | 0.00 | 0.16 | 0.00 | 80 | 2.2 |
| 20260506090613 | 56 | 240 | 7.0 | 7.8 | 0.00 | 0.16 | 0.00 | 77 | 2.1 |
| 20260506080611 | 54 | 70 | 4.3 | 7.0 | 0.00 | 0.16 | 0.00 | 81 | 2.3 |
| 20260506060615 | 53 | 220 | 6.1 | 7.0 | 0.00 | 0.16 | 0.00 | 82 | 2.4 |
| 20260506050612 | 52 | 95 | 0.0 | 3.5 | 0.00 | 0.16 | 0.00 | 84 | 2.4 |
| 20260506040656 | 52 | 330 | 2.6 | 2.6 | 0.00 | 0.16 | 0.00 | 85 | 2.4 |
| 20260506030611 | 51 | 240 | 0.0 | 0.0 | 0.00 | 0.16 | 0.00 | 88 | 2.5 |
| 20260506020611 | 51 | 275 | 1.7 | 1.7 | 0.00 | 0.16 | 0.00 | 88 | 2.5 |
| 20260506010655 | 51 | 140 | 0.0 | 0.0 | 0.00 | 0.16 | 0.00 | 88 | 2.5 |